Location: El Carrer d�Abaix
(41.5797°N, 2.1791°E)
Time: 22:25:17
(UTC+00:00)

Cosmos 1833 Rocket - Pass Details

Date: 06 June 2020
Orbit: 833 x 839 km, 71.0° (Epoch: 11 July)

Event Time Altitude Azimuth Distance (km) Brightness Sun altitude
Rises 20:06:40 0° 325° (NW) 3,389 7.7 -7.5°
Reaches altitude 10° 20:09:25 10° 314° (NW) 2,451 6.9 -7.9°
Maximum altitude 20:14:06 28° 257° (WSW) 1,526 4.5 -8.5°
Drops below altitude 10° 20:18:46 10° 200° (SSW) 2,440 4.9 -9.2°
Sets 20:21:30 0° 189° (S) 3,371 5.5 -9.6°
